www.pogodaiklimat.ru

Погода и климат >> Архив погоды >> Беларусь >> Кличев


ПОГОДА в Кличеве

  • Прогноз погоды в Кличеве
  • Монитор погоды в Кличеве

АРХИВ ПОГОДЫ в Кличеве

Время (UTC), дата Ветер
(напр.,м/с)
 
Видим.   Явления Облачность Т
(С)
Тd
(С)
f
(%)
Тe
(С)
Тes
(С)
Комфортность P
(гПа)
Po
(гПа)
Тmin
(С)
Tmax
(С)
R
(мм)
R24
(мм)
S
(см)
18 9.06 С 1 10 км {гроза} 8/8 700 м
[Cb calv]
+21.8 +19.0 84 +27 +27 душно 1022.6 1004.6 +30.2
21 9.06 С 2 4000 м дымка 8/4 600 м
[Sc Ac trans]
+17.3 +16.7 96 +18 +18 1023.5 1005.1
00 10.06 СЗ 1 4000 м дымка 4/0
[Ac trans]
+15.2 +14.7 97 +16 +16 1023.6 1005.1
03 10.06 штиль 0 1000 м дымка {туман} 3/0
[Ci fib]
+16.7 +16.4 98 +17 +17 1023.8 1005.4
06 10.06 С 1 20 км {туман} 8/0
[Cs]
+22.8 +17.7 73 +28 +36 душно 1023.9 1005.9 +14.8
09 10.06 СВ 3 20 км 8/8 900 м
[Cu Sc]
+25.0 +16.4 59 +28 +31 жарко 1023.1 1005.3
12 10.06 В 2 20 км 8/8 700 м
[Cb calv]
+26.6 +16.5 54 +30 +33 душно 1021.9 1004.2
15 10.06 СВ 2 20 км 8/3 600 м
[Cu med, cong Cs]
+27.4 +17.0 53 +31 +34 душно 1020.1 1002.5
18 10.06 В 1 10 км ясно +23.9 +17.6 68 +28 +28 душно 1020.2 1002.4 +28.1
21 10.06 СВ 1 10 км 4/0
[Ac trans Ci sp]
+19.8 +17.0 84 +23 +23 комфорт 1020.9 1002.8
00 11.06 В 3 10 км 3/0
[Ac trans]
+18.8 +16.8 88 +20 +20 1020.6 1002.4
03 11.06 В 1 4000 м дымка ясно +19.0 +17.8 93 +22 +23 комфорт 1020.8 1002.6
06 11.06 ЮВ 1 20 км 1/0
[Ac trans]
+25.2 +16.9 60 +29 +37 душно 1020.7 1003.0 +16.3
09 11.06 ЮВ 3 20 км 3/1 600 м
[Cu hum Ac trans]
+29.2 +15.7 44 +32 +42 душно 1020.3 1002.8
12 11.06 Ю 2 20 км 4/4 600 м
[Cu hum]
+31.4 +15.0 37 +34 +42 душно 1018.5 1001.2
15 11.06 В 4 20 км 3/3 600 м
[Cu med, cong]
+30.7 +15.2 39 +33 +35 душно 1017.8 1000.5
18 11.06 ЮВ 1 20 км ясно +27.1 +17.3 55 +31 +31 душно 1018.0 1000.4 +32.6
21 11.06 ЮВ 2 10 км ясно +23.3 +17.1 68 +28 +28 душно 1018.5 1000.7
00 12.06 штиль 0 10 км ясно +17.6 +15.8 89 +18 +18 1018.4 1000.2
03 12.06 штиль 0 4000 м дымка ясно +17.5 +16.7 95 +17 +18 1018.5 1000.2
06 12.06 З 1 20 км ясно +27.0 +16.3 52 +30 +39 душно 1017.3 999.7 +15.5
09 12.06 ЮЗ 2 20 км 8/8 840 м
[Cu Sc]
+31.8 +12.1 30 +32 +35 жарко 1016.3 999.1
12 12.06 ЮЗ 1 20 км 8/4 600 м
[Cu hum Ac trans]
+31.3 +16.9 42 +35 +41 очень
душно
1015.7 998.5
15 12.06 ЮЗ 2 20 км 6/3 600 м
[Cu hum Cs]
+32.8 +13.5 31 +34 +37 очень
жарко
1014.1 997.0
18 12.06 штиль 0
{10}
20 км 8/3 600 м
[Sc Cs]
+24.7 +18.2 67 +29 +29 душно 1015.4 997.7 +33.8
21 12.06 штиль 0 10 км 3/3 600 м
[Sc]
+19.3 +17.1 87 +21 +21 комфорт 1016.7 998.6
00 13.06 СВ 1 10 км 3/3 600 м
[Sc]
+19.8 +16.2 80 +23 +23 комфорт 1017.3 999.2
03 13.06 В 2 20 км 6/0
[Cs]
+20.0 +17.4 85 +23 +24 комфорт 1017.8 999.7
06 13.06 ЮВ 2 20 км 3/0
[Ci sp]
+25.4 +17.8 63 +30 +37 душно 1018.1 1000.4 +16.8
09 13.06 В 2 20 км ясно +29.4 +18.5 52 +34 +50 очень
душно
1018.4 1001.0
12 13.06 В 4 20 км 3/3 600 м
[Cu med, cong]
+31.4 +16.6 41 +35 +41 очень
душно
1017.4 1000.2
15 13.06 З 4 20 км гроза без осадков 8/8 800 м
[Cb calv]
+22.1 +17.7 76 +27 +28 душно 1019.6 1001.7
18 13.06 СВ 3
{14}
10 км в посл. час ливневой дождь {гроза} 9/9 800 м
[Cb calv]
+18.5 +17.0 91 +19 +19 1019.7 1001.5 +32.0 9
21 13.06 В 3 10 км 8/3 600 м
[Sc Ac trans]
+19.6 +17.2 86 +22 +22 комфорт 1019.7 1001.6
00 14.06 ЮВ 1 10 км 6/0
[Ac trans]
+19.5 +17.5 88 +23 +23 комфорт 1019.5 1001.4
03 14.06 ЮВ 1 10 км 3/0
[Ci fib]
+20.4 +18.3 88 +25 +26 комфорт 1019.1 1001.0
06 14.06 ЮВ 1 20 км 4/0
[Ci fib]
+24.6 +19.9 75 +30 +38 очень
душно
1018.1 1000.4 +18.5
09 14.06 ЮЗ 3 20 км 4/4 600 м
[Sc]
+29.9 +18.7 51 +35 +43 очень
душно
1017.9 1000.5
12 14.06 З 2 20 км 4/4 600 м
[Cu Sc]
+31.3 +16.9 42 +35 +43 очень
душно
1016.4 999.2
15 14.06 З 3 20 км 8/8 840 м
[Cu Sc]
+32.1 +13.8 33 +33 +34 жарко 1015.2 998.0
18 14.06 штиль 0
{11}
20 км 4/4 600 м
[Sc]
+24.0 +16.0 61 +27 +27 жарко 1016.2 998.4 +32.2
21 14.06 З 1 10 км ясно +20.7 +17.1 80 +25 +25 комфорт 1017.2 999.2
00 15.06 СЗ 2 4000 м дымка 4/0
[Ci sp]
+17.5 +16.2 92 +18 +18 1017.7 999.5
03 15.06 СЗ 3 4000 м дымка 8/0
[Cs]
+17.7 +17.1 96 +18 +18 1017.8 999.6
06 15.06 С 3 20 км ясно +22.0 +17.6 76 +27 +33 душно 1017.4 999.5 +16.6
09 15.06 СЗ 5 20 км 3/3 600 м
[Cu hum]
+25.1 +12.7 46 +27 +33 жарко 1017.3 999.6
12 15.06 С 3 20 км 1/1 600 м
[Cu hum]
+26.7 +10.8 37 +28 +38 жарко 1016.1 998.5
15 15.06 С 4 20 км 3/0
[Ci fib]
+26.6 +9.0 33 +27 +30 жарко 1015.0 997.5
18 15.06 СВ 2 20 км ясно +22.2 +11.3 50 +24 +24 комфорт 1015.3 997.4 +27.4
21 15.06 СВ 1 10 км ясно +15.0 +12.7 86 +15 +15 1016.1 997.7
00 16.06 СВ 1 4000 м дымка ясно +13.1 +11.8 92 +13 +13 1016.7 998.2
03 16.06 штиль 0 4000 м дымка ясно +13.9 +12.8 93 +13 +14 1016.4 997.9
06 16.06 В 3 10 км ясно +20.0 +13.0 64 +22 +29 комфорт 1016.4 998.4 +10.6
09 16.06 В 1 20 км 6/0
[Ac trans Cs]
+24.4 +11.7 45 +26 +40 жарко 1016.0 998.3
12 16.06 ЮВ 2 20 км 8/0
[Ac trans Cs]
+26.9 +10.1 35 +27 +38 жарко 1015.1 997.6
15 16.06 ЮВ 2 20 км 8/4 600 м
[Cb calv Ac trans]
+25.9 +10.1 37 +27 +28 жарко 1013.9 996.3

 

Местоположение метеостанции Кличев (Могилевская область, Беларусь): широта 53.50 долгота 29.32 высота над уровнем моря 155 м.

В архиве по умолчанию представлена погода в Кличеве за последнюю неделю. Архивные данные за месяц целиком и за предыдущие месяцы, начиная с января 2011 года, Вы можете получить, выбрав интересующий диапазон дат из раскрывающегося списка и нажав кнопку "Ввод!".


*Определитесь, кто Вы:
робот инопланетянин человек

Внимание! Время в таблицах - всемирное. Для получения местного времени необходимо прибавить поправку, которая равна 3 ч.

Смотрите также архив погоды в соседних городах и на ближайших метеорологических станциях:

Погода в Бобруйске (Могилевская область, Беларусь) (35 км)
Погода в Березино (Минская область, Беларусь) (43 км)
Погода в Могилеве (Могилевская область, Беларусь) (72 км)
Погода в Марьиной Горке (Минская область, Беларусь) (79 км)
Погода в Могилев городе (Могилевская область, Беларусь) (80 км)
Погода в Жлобине (Гомельская область, Беларусь) (82 км)
Погода в Борисове (Минская область, Беларусь) (101 км)
Погода в Октябре (Гомельская область, Беларусь) (101 км)
Погода в Славгороде (Могилевская область, Беларусь) (111 км)
Погода в Минске (город Минск, Беларусь) (118 км)

Пояснения к столбцам:

Ветер - указаны скорость ветра в м/с - средняя за 10 мин, порывы в срок и между сроками (в фигурных скобках) и направление, откуда дует ветер: С - северный, СВ - северо-восточный, В - восточный, ЮВ - юго-восточный, Ю - южный, ЮЗ - юго-западный, З - западный, СЗ - северо-западный.
Видимость - горизонтальная дальность видимости в метрах или километрах. При видимости от 1 до 10 км при отсутствии осадков обычно наблюдается дымка, при ухудшении видимости до 1 км и менее - туман. В сухую погоду видимость может ухудшаться дымом, пылью или мглою.
Явления - указаны атмосферные явления, наблюдавшиеся в срок или в последний час перед сроком; фигурными скобками обозначены явления, наблюдавшиеся между сроками (за 1-3 часа до срока); квадратными скобками обозначены град или гололедные отложения с указанием их диаметра в мм.
Облачность - указаны через наклонную черту общая и нижняя облачность в баллах и высота нижней границы облаков в метрах; квадратными скобками обозначены формы облаков: Ci - перистые, Cs - перисто-слоистые, Cc - перисто-кучевые, Ac - высококучевые, As - высокослоистые, Sc - слоисто-кучевые, Ns - слоисто-дождевые, Cu - кучевые, Cb - кучево-дождевые. Подробнее классификацию облаков см. в Атласе облаков (PDF).
T - Температура воздуха - температура, измеренная на высоте 2 м над землей.
Td - Температура точки росы - температура, при понижении до которой содержащийся в воздухе водяной пар достигнет насыщения.
f - Относительная влажность воздуха - влажноcть воздуха, измеренная на высоте 2 м над землей.
Te - Эффективная температура - температура, которую ощущает одетый по сезону человек в тени. Характеристика душности погоды. При расчете учитывается влияние влажности воздуха и скорости ветра на теплоощущения человека.
Tes - Эффективная температура на солнце - температура, которую ощущает человек, с поправкой на солнечный нагрев. Характеристика знойности погоды. Зависит от высоты солнца над горизонтом, облачности и скорости ветра. Ночью, в пасмурную погоду, а также при ветре 12 м/с и более поправка равна нулю.
P - Атмосферное давление - приведенное к уровню моря атмосферное давление.
Po - Атмосферное давление - измеренное на уровне метеостанции атмосферное давление.
Tmin - Минимальная температура - минимум температуры воздуха на высоте 2 м над землей.
Tmax - Максимальная температура - максимум температуры воздуха на высоте 2 м над землей.
R - Количество осадков - Количество выпавших осадков за период времени, мм. При наведении курсора мыши на число - период времени, за который выпало указанное количество осадков.
R24 - Количество осадков - Количество выпавших осадков за 24 часа, мм.
S - Снежный покров - Высота снежного покрова, см. При наведении курсора мыши на число - состояние снежного покрова и степень покрытия местности в баллах.